Weather History for KULM - September, 2013

Change the Weather History Date:

Wednesday, September 25, 2013

  Actual Average Record
Temperature  
Mean Temperature 62 °F -  
Max Temperature 75 °F 71 °F 138 °F (1997)
Min Temperature 48 °F 45 °F 28 °F (2000)
Degree Days  
Heating Degree Days 4    
Growing Degree Days 12 (Base 50)    
Moisture  
Dew Point 52 °F    
Average Humidity 76    
Maximum Humidity 100    
Minimum Humidity 44    
Precipitation  
Precipitation 0.00 in - - ()
Sea Level Pressure  
Sea Level Pressure 29.90 in    
Wind  
Wind Speed 6 mph (SE)    
Max Wind Speed 15 mph    
Max Gust Speed 20 mph    
Visibility 9 miles    
Events      
Averages and records for this station are not official NWS values.
T = Trace of Precipitation, MM = Missing Value Source: NWS Daily Summary

Daily Weather History Graph

Daily Weather History Graph

Search for Another Location

Airport or City:

Trip Planner

Search our weather history database for the weather conditions in past years. The results will help you decide how hot, cold, wet, or windy it might be!

Date:

Astronomy

Sep. 25, 2013 Rise Set
Actual Time 7:09 AM CDT 7:09 PM CDT
Civil Twilight 6:40 AM CDT 7:38 PM CDT
Nautical Twilight 6:06 AM CDT 8:11 PM CDT
Astronomical Twilight 5:31 AM CDT 8:46 PM CDT
Moon 11:04 PM CDT (9/25) 1:27 PM CDT (9/25)
Length of Visible Light 12h 58m
Length of Day
12h 00m
Waning Gibbous, 64% of the Moon is Illuminated
Sep 25
Waning Gibbous
Sep 26
Last Quarter
Oct 4
New
Oct 11
First Quarter
Oct 18
Full

Hourly Weather History & Observations

Time (CDT) Temp. Dew Point Humidity Pressure Visibility Wind Dir Wind Speed Gust Speed Precip Events Conditions
12:13 AM 53.6 °F 53.6 °F 100% 29.94 in 7.0 mi SE 3.5 mph - N/A   Clear
12:33 AM 53.6 °F 53.6 °F 100% 29.93 in 5.0 mi Calm Calm - N/A   Clear
12:52 AM 53.6 °F 53.6 °F 100% 29.94 in 10.0 mi Calm Calm - N/A   Clear
1:13 AM 55.4 °F 55.4 °F 100% 29.94 in 10.0 mi Calm Calm - N/A   Clear
1:33 AM 51.8 °F 51.8 °F 100% 29.94 in 10.0 mi ESE 4.6 mph - N/A   Clear
1:52 AM 51.8 °F 51.8 °F 100% 29.94 in 10.0 mi SE 4.6 mph - N/A   Clear
2:13 AM 51.8 °F 51.8 °F 100% 29.94 in 10.0 mi ESE 3.5 mph - N/A   Clear
2:33 AM 53.6 °F 53.6 °F 100% 29.94 in 10.0 mi SE 4.6 mph - N/A   Clear
2:52 AM 51.8 °F 51.8 °F 100% 29.94 in 10.0 mi SE 4.6 mph - N/A   Clear
3:13 AM 51.8 °F 51.8 °F 100% - 10.0 mi SE 4.6 mph - N/A   Clear
3:33 AM 51.8 °F 51.8 °F 100% 29.95 in 10.0 mi SSE 3.5 mph - N/A   Clear
3:52 AM 51.8 °F 51.8 °F 100% 29.95 in 10.0 mi SSE 4.6 mph - N/A   Scattered Clouds
4:13 AM 51.8 °F 51.8 °F 100% 29.95 in 10.0 mi SE 3.5 mph - N/A   Scattered Clouds
4:32 AM 48.2 °F 48.2 °F 100% 29.95 in 7.0 mi SE 4.6 mph - N/A   Unknown
4:53 AM 50.0 °F 50.0 °F 100% 29.95 in 7.0 mi Calm Calm - N/A   Unknown
5:13 AM 50.0 °F 50.0 °F 100% 29.94 in 7.0 mi SE 3.5 mph - N/A   Unknown
5:32 AM 50.0 °F 50.0 °F 100% 29.94 in 7.0 mi Calm Calm - N/A   Clear
5:53 AM 50.0 °F 50.0 °F 100% 29.94 in 7.0 mi Calm Calm - N/A   Clear
6:13 AM 48.2 °F 48.2 °F 100% 29.94 in 7.0 mi ESE 3.5 mph - N/A   Clear
6:32 AM 50.0 °F 50.0 °F 100% 29.94 in 7.0 mi ESE 3.5 mph - N/A   Clear
6:53 AM 50.0 °F 50.0 °F 100% 29.94 in 7.0 mi ESE 3.5 mph - N/A   Clear
7:13 AM 48.2 °F 48.2 °F 100% 29.95 in 5.0 mi Calm Calm - N/A   Clear
7:32 AM 48.2 °F 48.2 °F 100% 29.95 in 4.0 mi SE 3.5 mph - N/A   Clear
7:53 AM 50.0 °F 50.0 °F 100% 29.95 in 5.0 mi Calm Calm - N/A   Clear
8:13 AM 51.8 °F 51.8 °F 100% 29.95 in 5.0 mi SE 4.6 mph - N/A   Clear
8:32 AM 53.6 °F 53.6 °F 100% 29.95 in 7.0 mi SE 5.8 mph - N/A   Clear
8:53 AM 55.4 °F 53.6 °F 94% 29.95 in 10.0 mi SSE 5.8 mph - N/A   Clear
9:13 AM 55.4 °F 53.6 °F 94% 29.95 in 10.0 mi SE 5.8 mph - N/A   Clear
9:32 AM 57.2 °F 53.6 °F 88% 29.95 in 10.0 mi SSE 5.8 mph - N/A   Clear
9:53 AM 60.8 °F 55.4 °F 82% - 10.0 mi SSE 5.8 mph - N/A   Clear
10:13 AM 62.6 °F 55.4 °F 77% 29.96 in 10.0 mi SSE 5.8 mph - N/A   Clear
10:32 AM 62.6 °F 55.4 °F 77% 29.95 in 10.0 mi SE 5.8 mph - N/A   Clear
10:53 AM 64.4 °F 53.6 °F 68% 29.95 in 10.0 mi SE 9.2 mph - N/A   Clear
11:12 AM 66.2 °F 53.6 °F 64% 29.95 in 10.0 mi SSE 8.1 mph - N/A   Clear
11:33 AM 68.0 °F 53.6 °F 60% 29.95 in 10.0 mi SSE 10.4 mph - N/A   Clear
11:53 AM 69.8 °F 53.6 °F 56% 29.94 in 10.0 mi SE 10.4 mph - N/A   Clear
12:12 PM 69.8 °F 51.8 °F 53% 29.93 in 10.0 mi SE 12.7 mph 18.4 mph N/A   Clear
12:33 PM 71.6 °F 53.6 °F 53% 29.93 in 10.0 mi SE 12.7 mph 18.4 mph N/A   Clear
12:53 PM 71.6 °F 51.8 °F 50% 29.92 in 10.0 mi SE 12.7 mph 18.4 mph N/A   Clear
1:12 PM 71.6 °F 51.8 °F 50% 29.92 in 10.0 mi South 10.4 mph - N/A   Clear
1:33 PM 73.4 °F 51.8 °F 47% 29.91 in 10.0 mi SSE 11.5 mph 18.4 mph N/A   Clear
1:53 PM 73.4 °F 51.8 °F 47% 29.89 in 10.0 mi SSE 9.2 mph - N/A   Clear
2:12 PM 73.4 °F 51.8 °F 47% 29.88 in 10.0 mi SSE 12.7 mph - N/A   Clear
2:33 PM 73.4 °F 50.0 °F 44% 29.87 in 10.0 mi SE 13.8 mph 17.3 mph N/A   Clear
2:53 PM 75.2 °F 51.8 °F 44% 29.87 in 10.0 mi South 15.0 mph 19.6 mph N/A   Clear
3:12 PM 73.4 °F 51.8 °F 47% 29.86 in 10.0 mi SE 13.8 mph 17.3 mph N/A   Clear
3:33 PM 75.2 °F 51.8 °F 44% 29.86 in 10.0 mi SSE 12.7 mph - N/A   Clear
3:53 PM 73.4 °F 51.8 °F 47% 29.85 in 10.0 mi SE 12.7 mph 17.3 mph N/A   Clear
4:12 PM 73.4 °F 53.6 °F 50% 29.85 in 10.0 mi SE 9.2 mph - N/A   Clear
4:33 PM 75.2 °F 51.8 °F 44% 29.84 in 10.0 mi SE 15.0 mph - N/A   Clear
4:53 PM 73.4 °F 51.8 °F 47% 29.84 in 10.0 mi SE 15.0 mph - N/A   Clear
5:12 PM 73.4 °F 51.8 °F 47% 29.84 in 10.0 mi SE 13.8 mph - N/A   Clear
5:33 PM 73.4 °F 51.8 °F 47% 29.83 in 10.0 mi SE 15.0 mph - N/A   Clear
5:53 PM 73.4 °F 51.8 °F 47% 29.83 in 10.0 mi SE 11.5 mph - N/A   Clear
6:12 PM 71.6 °F 51.8 °F 50% 29.83 in 10.0 mi SE 11.5 mph - N/A   Clear
6:33 PM 71.6 °F 53.6 °F 53% 29.82 in 10.0 mi SE 10.4 mph - N/A   Clear
6:53 PM 69.8 °F 53.6 °F 56% 29.82 in 10.0 mi SE 9.2 mph - N/A   Clear
7:12 PM 66.2 °F 53.6 °F 64% 29.83 in 10.0 mi SE 6.9 mph - N/A   Clear
7:33 PM 64.4 °F 53.6 °F 68% 29.83 in 10.0 mi ESE 4.6 mph - N/A   Clear
7:53 PM 64.4 °F 53.6 °F 68% 29.83 in 10.0 mi ESE 6.9 mph - N/A   Clear
8:12 PM 64.4 °F 53.6 °F 68% 29.84 in 10.0 mi East 5.8 mph - N/A   Clear
8:33 PM 64.4 °F 53.6 °F 68% 29.84 in 10.0 mi ESE 6.9 mph - N/A   Clear
8:53 PM 62.6 °F 53.6 °F 72% 29.84 in 10.0 mi ESE 8.1 mph - N/A   Clear
9:13 PM 62.6 °F 53.6 °F 72% 29.84 in 10.0 mi ESE 8.1 mph - N/A   Clear
9:28 PM 62.6 °F 53.6 °F 72% 29.84 in 10.0 mi ESE 8.1 mph - N/A   Clear
9:53 PM 62.6 °F 53.6 °F 72% 29.85 in 10.0 mi ESE 9.2 mph - N/A   Clear
10:12 PM 62.6 °F 53.6 °F 72% 29.85 in 10.0 mi SE 10.4 mph - N/A   Clear
10:33 PM 62.6 °F 53.6 °F 72% 29.86 in 10.0 mi SE 10.4 mph - N/A   Clear
10:53 PM 60.8 °F 53.6 °F 77% 29.87 in 10.0 mi ESE 9.2 mph - N/A   Clear
11:13 PM 60.8 °F 53.6 °F 77% 29.86 in 10.0 mi SE 10.4 mph - N/A   Clear
11:33 PM 60.8 °F 53.6 °F 77% 29.87 in 10.0 mi SE 9.2 mph - N/A   Clear
11:52 PM 60.8 °F 53.6 °F 77% 29.87 in 10.0 mi SE 9.2 mph - N/A   Clear